Theta_e
285 285 285 285 285 285 285 284 284 283 282 282 281 281 280 280 280 280 280 280 279 279 278 278 278 278 279 279 279 280 281 281 283 283 283 283 283 284 285 284 284 285 286
285 285 285 285 285 285 285 284 284 283 282 281 280 279 279 279 279 279 278 278 277 277 277 277 277 277 277 278 278 279 279 280 281 282 282 282 283 283 284 284 284 284 285
285 285 285 285 285 285 285 284 284 282 281 280 279 279 278 278 278 277 276 275 275 275 275 275 275 275 276 276 277 277 278 279 279 280 281 281 282 282 283 284 285 285 285
285 285 286 285 285 284 284 284 283 282 281 280 279 278 278 277 277 275 275 275 274 274 274 274 273 273 274 274 274 275 276 278 278 279 279 280 280 282 283 284 284 285 285
286 286 286 285 284 284 283 283 283 281 280 279 278 277 277 276 274 274 274 274 273 273 273 272 272 272 272 273 274 274 275 275 276 278 279 280 280 281 282 283 284 284 285
286 286 285 285 284 283 282 282 280 279 279 278 277 276 275 274 274 273 274 273 273 272 272 272 271 271 271 272 272 273 273 274 275 276 276 277 278 279 280 280 281 282 284
286 285 285 284 283 282 281 279 279 279 278 277 276 275 274 274 273 272 272 272 272 271 270 270 270 270 270 270 270 271 272 272 273 274 275 275 275 275 276 276 277 278 279
285 285 284 283 282 280 279 279 279 278 277 276 275 274 273 272 271 271 272 271 270 270 270 270 270 270 270 271 271 272 272 273 273 273 274 274 275 275 275 276 276 277 278
285 285 284 282 280 279 278 278 278 277 276 275 274 272 272 272 271 270 271 271 270 270 270 270 270 270 271 272 274 274 274 274 274 274 274 275 275 276 276 276 277 277 277
285 284 282 280 279 278 277 277 277 276 275 273 272 272 271 271 271 270 270 271 270 271 271 271 271 272 273 274 274 274 274 274 274 274 274 274 275 275 275 275 276 276 276
284 282 280 279 278 277 276 276 275 274 273 272 272 272 271 270 271 269 270 271 272 272 273 272 272 273 274 275 276 276 276 276 276 276 276 276 275 275 275 275 275 275 275
282 281 279 278 277 276 275 274 274 273 272 272 271 270 270 270 270 268 270 272 273 273 273 273 273 274 276 275 274 274 274 275 275 275 275 275 275 274 274 274 274 274 274
281 279 277 276 275 274 274 273 272 272 271 270 268 268 269 270 269 269 270 271 272 273 273 273 273 271 271 270 270 271 271 270 271 271 272 272 273 273 274 274 274 274 273
279 277 276 275 274 273 272 271 271 271 270 268 267 267 268 269 269 269 271 272 272 273 271 270 268 267 267 267 266 267 267 267 268 268 269 270 270 271 271 272 272 272 272
277 275 274 272 272 271 271 270 270 270 269 267 268 269 269 269 269 271 273 273 273 271 270 267 266 264 263 264 264 264 265 265 266 266 267 268 269 270 271 271 271 272 272
275 273 272 271 270 270 269 269 269 267 268 269 270 271 271 270 270 271 272 272 272 269 267 264 263 262 262 263 263 263 264 264 265 265 266 267 268 270 270 272 272 272 272
273 272 271 270 269 268 268 267 266 269 267 267 267 269 269 269 270 270 271 270 268 266 264 263 262 261 262 262 262 262 263 263 264 265 266 267 268 270 271 271 272 272 273
271 271 270 269 268 267 266 266 265 264 263 266 267 265 265 268 268 269 268 266 265 265 264 262 262 262 262 262 262 262 262 263 264 265 266 267 268 269 271 272 272 272 273
269 268 268 267 266 265 264 264 264 263 263 262 264 265 264 264 265 266 264 264 263 263 262 262 262 262 261 261 262 262 262 263 264 265 266 267 268 268 270 272 272 273 273
266 266 265 265 264 263 263 262 262 262 262 262 262 264 264 263 264 264 264 263 263 263 262 261 261 262 261 261 262 262 262 263 264 265 267 267 267 268 269 270 271 273 276
264 264 263 263 262 262 262 262 262 261 261 261 262 263 262 265 264 263 263 263 262 262 261 261 261 262 261 261 262 261 262 263 264 265 267 267 266 267 268 269 270 272 274
263 262 262 262 262 261 261 261 261 261 261 261 262 262 262 262 262 262 263 263 262 262 261 261 261 262 262 262 262 262 263 263 264 265 266 266 266 266 267 268 270 271 272
262 262 262 261 261 261 261 260 260 260 260 261 261 261 261 261 262 262 262 262 262 262 262 261 262 262 262 262 262 263 264 265 266 266 266 266 266 266 267 268 269 270 272
261 261 261 260 260 260 260 260 260 259 259 260 260 260 260 261 261 261 261 261 261 261 261 261 262 262 263 263 263 264 266 267 268 267 267 267 267 267 267 267 268 269 270
261 261 260 260 260 259 259 259 259 259 259 259 260 260 261 260 260 261 260 261 261 261 261 262 262 263 263 264 264 265 266 268 268 267 268 267 267 267 267 268 268 268 269
261 260 260 260 260 259 259 259 259 259 259 260 260 260 260 259 259 260 260 260 261 261 261 262 262 263 264 264 264 265 267 267 269 268 268 268 267 267 267 267 267 267 267
Wind_Speed
17 15 13 12 10 9 8 8 8 8 10 12 15 18 20 22 23 24 24 23 24 26 24 23 23 22 20 20 21 19 19 18 21 27 28 32 30 28 30 35 33 31 31
18 15 12 9 7 5 5 6 8 9 11 14 16 18 20 22 23 23 23 23 23 22 22 22 23 22 24 22 21 22 22 22 24 28 27 29 31 27 28 30 33 35 34
19 16 14 11 8 4 2 4 7 10 12 15 17 20 21 22 23 21 20 22 22 21 19 20 22 23 25 24 24 25 24 25 25 26 30 24 28 29 28 26 26 29 33
21 18 15 13 9 5 1 4 8 11 13 16 18 19 20 21 20 19 22 22 21 20 20 20 22 22 23 24 26 26 26 26 25 26 29 28 25 25 27 26 26 23 25
24 21 19 15 12 8 5 6 8 10 12 14 17 18 19 20 16 19 20 20 21 22 22 21 21 22 26 26 26 26 26 26 26 26 26 27 24 21 22 23 26 25 26
26 26 22 19 15 12 9 8 8 10 13 16 17 19 20 19 19 16 18 20 21 22 23 23 23 24 23 24 25 26 27 29 28 26 26 26 28 26 24 24 24 23 15
29 26 24 21 19 15 11 9 10 12 15 17 18 19 19 21 19 17 18 19 20 20 22 23 25 24 25 25 25 26 26 26 27 30 29 28 29 28 28 31 29 30 31
28 27 25 23 20 15 13 11 11 13 15 17 18 18 20 21 20 18 18 19 19 20 20 23 25 26 26 27 29 28 28 27 27 29 29 31 31 30 29 30 31 33 35
28 28 27 24 20 16 13 11 12 14 15 17 17 19 21 22 21 19 19 20 20 22 22 23 26 29 28 28 31 30 28 29 31 32 33 33 32 30 29 29 26 25 24
28 29 26 22 19 16 12 12 12 14 16 17 18 20 20 22 20 19 18 20 22 24 25 25 25 28 31 31 32 32 32 33 34 34 35 35 35 35 32 32 28 25 25
23 23 23 21 17 14 13 12 13 14 16 18 20 20 20 19 22 19 17 20 22 25 24 27 28 30 32 34 35 36 35 38 37 34 30 27 26 25 28 29 29 30 30
21 22 22 19 16 14 13 13 13 15 17 19 20 21 20 20 21 18 17 19 23 26 28 28 31 32 33 34 35 35 35 36 30 27 27 27 27 27 28 30 31 33 35
22 23 20 18 16 14 14 13 13 14 16 19 19 21 23 22 21 20 19 20 22 26 28 29 29 34 33 32 28 27 27 24 22 23 24 26 27 28 29 29 29 32 37
23 22 19 18 16 14 14 14 15 15 17 18 18 20 23 23 18 23 24 23 24 22 23 30 29 26 21 20 22 21 20 20 21 24 26 28 29 28 28 28 28 28 30
21 20 19 17 15 14 14 15 16 16 16 17 18 22 22 16 20 20 22 23 23 22 25 28 27 26 22 21 22 22 22 22 21 23 24 26 27 27 27 25 26 27 27
20 19 17 16 14 14 15 17 15 14 14 16 19 20 19 18 19 19 20 21 20 20 20 21 23 19 18 20 21 24 23 23 22 24 25 26 26 26 27 25 24 26 27
18 16 15 14 15 15 15 16 18 16 15 15 13 14 15 17 17 17 18 19 18 14 16 20 19 19 21 21 21 22 24 26 27 25 25 26 27 29 26 25 25 25 27
15 16 17 17 17 17 17 17 16 17 18 20 14 13 14 13 14 15 15 16 17 15 17 20 22 22 22 22 23 23 25 26 26 25 26 26 26 26 26 24 25 25 26
15 16 17 17 17 17 17 17 17 17 19 21 19 16 11 11 12 10 11 13 16 18 19 21 22 23 24 24 24 25 25 26 28 28 26 27 27 25 25 25 26 28 28
16 17 17 17 17 17 17 17 18 19 20 20 20 18 16 12 14 17 15 15 16 18 21 22 24 24 25 25 25 26 26 27 26 27 27 27 27 26 25 25 25 25 25
15 16 17 18 17 18 18 19 20 20 21 21 21 17 14 17 17 19 18 17 17 19 21 22 24 25 26 26 27 26 27 28 27 27 27 28 28 27 27 26 25 25 24
16 16 16 17 17 18 19 20 21 21 22 21 21 18 14 17 18 19 20 20 20 20 21 22 24 25 25 25 26 28 29 31 31 31 28 29 27 26 25 25 24 23 21
10 11 14 17 18 18 19 20 20 20 21 21 20 19 18 19 19 20 22 22 22 22 22 22 23 25 23 23 23 24 27 31 32 31 30 29 27 25 24 22 21 20 17
12 15 16 16 16 17 18 19 18 18 18 19 19 19 20 20 20 21 21 22 23 23 22 21 22 22 22 23 23 22 22 25 29 26 27 27 26 25 23 21 20 18 16
10 12 14 16 16 16 17 17 18 18 18 18 20 20 21 20 21 21 20 20 21 22 22 22 22 21 21 22 21 19 18 19 22 21 25 22 21 21 20 18 18 16 16
13 14 15 15 15 17 17 18 19 19 19 19 20 21 21 22 22 21 20 20 21 23 23 23 22 20 20 20 20 17 15 17 20 22 21 19 19 19 18 17 17 16 16
Wind_Direction
160 153 144 137 123 106 88 69 49 27 12 4 359 356 354 353 352 349 347 345 340 337 335 329 323 320 313 309 306 300 292 286 279 287 286 294 295 294 294 296 294 294 294
177 172 163 151 142 118 78 46 23 8 358 354 353 351 350 350 349 347 343 340 336 331 327 322 317 317 311 308 304 298 293 290 285 289 292 293 293 294 290 289 293 290 289
188 184 181 181 179 163 81 19 360 353 349 347 347 347 347 347 345 343 339 331 327 323 320 315 312 311 307 306 303 298 294 291 285 283 290 290 290 295 294 288 286 289 287
198 198 200 201 201 204 250 334 336 334 333 334 339 341 341 342 342 336 331 326 323 317 314 310 307 304 302 303 301 297 296 295 291 287 285 287 286 291 291 291 290 285 283
207 210 214 213 215 224 243 281 304 317 324 330 333 335 338 341 337 331 327 321 317 314 311 308 305 300 298 296 295 297 298 295 293 292 287 284 282 284 282 290 289 293 288
215 220 217 217 221 227 245 270 295 312 323 328 331 333 335 337 335 327 321 316 312 310 309 308 307 305 303 299 295 292 290 291 288 289 290 285 289 291 286 297 307 308 297
222 223 221 221 223 229 245 266 290 311 320 324 327 329 330 332 333 322 317 312 307 305 306 308 307 305 301 299 298 295 292 288 285 286 287 286 289 289 290 293 289 286 283
227 225 222 222 225 233 248 271 296 311 315 318 320 324 326 330 330 322 319 310 306 305 304 303 301 300 298 299 295 290 285 281 283 282 276 277 281 282 276 272 270 272 276
229 227 223 222 227 237 253 277 297 304 308 312 318 322 325 328 330 324 320 312 307 304 303 299 296 293 295 298 292 290 290 285 282 280 279 279 280 282 283 283 281 282 285
233 228 223 223 230 242 260 278 292 298 305 310 313 319 323 324 330 325 318 312 303 301 298 295 296 300 302 302 297 291 285 281 280 277 273 274 275 274 275 271 272 270 272
234 223 221 225 234 248 262 276 288 297 301 306 310 315 320 328 329 324 317 309 302 300 301 302 299 303 303 300 294 285 276 279 283 279 275 275 277 268 266 259 257 259 265
226 221 221 228 239 254 267 279 287 296 301 305 309 313 322 331 332 321 314 311 311 308 303 304 300 301 308 310 309 305 301 301 302 299 292 285 280 276 272 269 265 264 262
217 218 222 231 242 255 268 278 286 294 299 303 308 312 319 328 326 327 312 312 316 312 310 310 317 315 309 307 307 307 307 311 310 304 295 288 286 284 283 279 272 268 268
217 217 224 234 243 254 266 276 282 288 292 294 298 303 313 315 314 320 324 322 317 319 326 319 321 321 323 316 320 321 318 312 305 299 296 295 294 290 281 278 277 275 274
217 220 226 235 244 252 265 272 276 280 283 287 293 300 296 287 307 312 312 315 319 328 319 324 339 346 336 332 328 323 321 317 310 306 301 297 293 291 285 277 271 271 267
217 221 230 239 248 258 265 271 268 272 275 275 278 280 285 288 300 305 308 312 324 326 320 335 338 332 326 326 322 320 320 316 311 308 303 300 297 295 289 285 274 270 269
227 233 239 246 251 255 262 270 281 278 281 285 278 277 277 291 296 302 306 312 316 322 334 335 332 326 323 321 317 315 312 313 312 307 306 304 303 300 290 284 281 277 275
238 243 246 249 252 255 258 263 269 279 289 293 283 281 288 285 292 300 307 304 317 336 339 333 330 329 323 316 315 313 313 314 314 312 311 309 307 307 304 289 282 279 280
248 253 257 258 258 261 264 264 267 273 278 283 289 287 287 284 291 294 304 310 321 328 332 331 331 331 322 316 316 316 313 312 311 310 311 313 311 311 307 305 291 283 280
261 261 262 261 261 265 265 265 269 273 276 278 281 284 298 300 297 305 308 312 317 321 324 325 327 328 325 322 323 322 317 318 317 316 314 317 315 312 307 305 305 302 296
268 270 268 265 265 268 269 267 269 273 273 275 278 285 286 288 286 296 303 310 316 317 319 320 322 324 325 327 330 323 324 321 321 319 317 319 316 313 312 309 307 307 306
273 272 270 269 275 274 271 273 271 272 273 275 280 284 282 275 288 297 303 308 314 315 318 319 320 321 323 324 327 328 329 326 326 326 320 322 318 316 315 314 314 315 316
282 279 279 281 278 275 272 269 268 269 272 274 277 282 285 286 293 297 302 308 311 313 317 319 320 320 323 324 325 326 325 329 333 337 319 324 324 322 323 320 323 325 329
289 291 286 284 282 280 277 274 273 273 274 276 280 282 285 290 293 296 302 307 308 311 314 318 319 321 323 326 328 329 330 332 338 337 337 337 337 338 339 341 344 348 347
299 291 285 282 284 285 284 280 279 280 281 281 283 286 289 291 292 296 301 305 307 309 313 316 319 321 324 327 329 328 331 335 343 342 342 343 345 349 353 357 1 8 11
306 296 291 287 289 293 290 287 286 286 286 286 287 289 291 292 294 297 302 305 307 308 310 312 315 318 320 326 330 328 329 335 339 341 346 353 358 3 8 15 18 25 27